Location: Unspecified
(0.0000°N, 0.0000°E)
Time: 05:59:37
(UTC+00:00)

LightSail 2 - Pass Details

Date: 10 October 2019
Orbit: 707 x 723 km, 24.0° (Epoch: 13 October)

Event Time Altitude Azimuth Distance (km) Brightness Sun altitude
Rises 18:17:32 0° 290° (WNW) 3,108 9.7 -7.6°
Reaches altitude 10° 18:22:00 10° 325° (NW) 2,190 8.1 -8.7°
Maximum altitude 18:23:25 11° 341° (NNW) 2,120 7.8 -9.0°
Drops below altitude 10° 18:24:50 10° 358° (N) 2,190 7.6 -9.4°
Enters shadow 18:29:16 - 33° (NNE) 3,099 8.1 -10.5°
